• Join FlightAware (Why Join?)
  • Login
  • US Flag GB Flag 
14:45 EDT


 

Airport Tracker/Info


-or-


 

Live Flight TrackerFlight Track Log ✈ N232CF ✈ 12-Jun-2013 ✈ K24 - KMTN

Flight Track Log - Related Links

Times and Time Zones

All times are in EDT time to prevent confusion due to time zone crossing. See the N232CF flight status page for this flight to view local times or setup timezone preferences in your user account.

Time Position Orientation Groundspeed Altitude Reporting Facility
EDT Latitude Longitude Course Direction KTS MPH feet Rate Location/Type
19:54 37.0056 -84.9269 67° East 305 351 8,100  Level Indianapolis Center
19:55 37.0525 -84.8031 65° Northeast 330 380 10,900 2,580 Climbing Indianapolis Center
19:56 37.0969 -84.6858 65° Northeast 370 426 13,500 2,700 Climbing Indianapolis Center
19:57 37.1414 -84.5667 65° Northeast 375 432 16,500 2,580 Climbing Indianapolis Center
19:58 37.1853 -84.4458 65° Northeast 379 436 18,800 2,040 Climbing Indianapolis Center
19:59 37.7029 -83.1414 67° East  Level FlightAware Approximate
19:59 37.2333 -84.3208 64° Northeast 393 452 20,800  Level Indianapolis Center
20:00 37.2811 -84.1897 65° Northeast 411 473 22,900 1,920 Climbing Indianapolis Center
20:01 37.3311 -84.0542 65° Northeast 421 484 24,800 1,920 Climbing Indianapolis Center
20:02 37.3917 -83.8914 65° Northeast 444 511 26,900 1,740 Climbing Indianapolis Center
20:03 37.4436 -83.7494 65° Northeast 448 516 28,500 1,440 Climbing Indianapolis Center
20:04 37.4964 -83.6022 66° East 459 528 29,900 1,380 Climbing Indianapolis Center
20:05 37.5514 -83.4508 65° Northeast 471 542 31,400 1,620 Climbing Indianapolis Center
20:06 37.6064 -83.2947 66° East 482 555 33,300 1,740 Climbing Indianapolis Center
20:07 37.6636 -83.1364 65° Northeast 488 562 35,100 1,740 Climbing Indianapolis Center
20:09 37.7185 -82.9471 66° East  Level FlightAware Approximate
20:09 37.7739 -82.8211 66° East 488 562 38,800  Level Indianapolis Center
20:10 37.8383 -82.6447 65° Northeast 477 549 41,000 1,020 Climbing Indianapolis Center
20:11 37.8939 -82.4850 66° East 491 565 41,000  Level Indianapolis Center
20:12 37.9514 -82.3181 66° East 512 589 41,000  Level Indianapolis Center
20:13 38.0422 -82.1786 50° Northeast 514 592 41,000  Level Indianapolis Center
20:14 38.1275 -82.0553 49° Northeast 516 594 41,000 -120 Level Indianapolis Center
20:15 38.2108 -81.8586 62° Northeast 529 609 40,800 -660 Descending Indianapolis Center
20:16 38.2781 -81.6928 63° Northeast 532 612 39,700 -960 Descending Indianapolis Center
20:17 38.3467 -81.5236 63° Northeast 539 620 38,900 -1,080 Descending Indianapolis Center
20:18 38.4153 -81.3564 62° Northeast 539 620 37,500 -1,320 Descending Indianapolis Center
20:20 38.4822 -81.1897 63° Northeast 537 618 36,200 -1,800 Descending Indianapolis Center
20:21 38.5469 -81.0289 63° Northeast 517 595 33,800 -1,620 Descending Indianapolis Center
20:22 38.6283 -80.8253 63° Northeast 538 619 33,000 -420 Descending Indianapolis Center
20:23 38.6953 -80.6547 63° Northeast 538 619 33,000  Level Indianapolis Center
20:24 38.7636 -80.4811 63° Northeast 545 627 33,000 -1,740 Level Indianapolis Center
20:25 38.8322 -80.3078 63° Northeast 546 628 29,500 -2,700 Descending Indianapolis Center
20:26 38.9011 -80.1342 63° Northeast 547 629 27,500 -1,800 Descending Indianapolis Center
20:27 38.9536 -79.9617 69° East 532 612 25,800 -1,260 Descending Indianapolis Center
20:28 39.0106 -79.7575 70° East 521 600 25,000 -660 Descending Indianapolis Center
20:29 39.0575 -79.5894 70° East 514 592 24,500 -1,260 Descending Indianapolis Center
20:30 39.1089 -79.4061 70° East 511 588 22,400 -2,100 Descending Indianapolis Center
20:31 39.1728 -79.2408 63° Northeast 506 582 20,200 -1,680 Descending Washington Center
20:32 39.2419 -79.0942 59° Northeast 480 552 19,000 -1,260 Descending Washington Center
20:33 39.2964 -78.9361 66° East 474 545 17,800 -1,020 Descending Washington Center
20:34 39.3528 -78.7803 65° Northeast 474 545 17,000 -1,140 Descending Washington Center
20:35 39.3842 -78.6097 77° East 474 545 15,600 -1,020 Descending Washington Center
20:36 39.3842 -78.4353 90° East 474 545 15,000 -240 Descending Washington Center
20:37 39.3833 -78.1667 90° East 495 570 15,000  Level Potomac TRACON
20:38 39.3858 -78.0833 88° East 484 557 15,000  Level Washington Center
20:39 39.3997 -77.9119 84° East 479 551 15,000  Level Washington Center
20:40 39.4153 -77.7381 83° East 479 551 15,000 -600 Level Washington Center
20:41 39.4283 -77.5853 84° East 479 551 13,800 -1,620 Descending Washington Center
20:42 39.4414 -77.4217 84° East 474 545 11,800 -2,040 Descending Washington Center
20:42 39.4500 -77.3333 83° East 442 509 11,000 -720 Descending Potomac TRACON
20:43 39.4500 -77.1833 90° East 431 496 10,800 -540 Descending Potomac TRACON
20:44 39.4456 -77.1208 95° East 423 487 10,200 -1,200 Descending Washington Center
20:45 39.4367 -76.9994 95° East 377 434 8,900 -1,560 Descending Washington Center
20:46 39.4294 -76.8892 95° East 332 382 7,100 -2,160 Descending Washington Center
20:46 39.4333 -76.8333 85° East 305 351 6,100 -2,100 Descending Potomac TRACON
20:47 39.4167 -76.7333 102° East 294 338 4,200 -1,500 Descending Potomac TRACON
20:48 39.3833 -76.6333 113° Southeast 275 316 3,000 -1,080 Descending Potomac TRACON
20:49 39.3667 -76.5500 104° East 242 278 2,100 -780 Descending Potomac TRACON
20:50 39.3333 -76.4833 123° Southeast 223 257 1,500 -360 Descending Potomac TRACON
20:51 39.2833 -76.4333 142° Southeast 190 219 1,400 -240 Descending Potomac TRACON
20:52 39.2833 -76.3833 90° East 176 203 1,100 -600 Descending Potomac TRACON
20:53 39.3167 -76.4000 339° North 153 176 300 -840 Descending Potomac TRACON
20:55 39.3257 -76.4138 339° North  Level Estimated
21:02 39.3257 -76.4138 339° North  Level Estimated
21:03 39.3257 -76.4138 339° North  Level Estimated
21:04 39.3257 -76.4138 339° North  Level Estimated
21:05 39.3257 -76.4138 339° North  Level Estimated
21:06 39.3257 -76.4138 339° North  Level Estimated
21:07 39.3257 -76.4138 339° North  Level Estimated
21:08 39.3257 -76.4138 339° North  Level Estimated
21:09 39.3257 -76.4138 339° North  Level Estimated